GEFSNE_500_meanwind_024.txt.gz
Wind_Speed
49 49 47 45 44 43 41 40 38 35 31 32 34 36 36 36 36 37 37 37 38 38 39 40 41 42 44 46 49 52 55 57 59 63 66 69 74 74
49 48 47 47 45 43 41 39 37 34 29 28 30 31 32 32 32 33 33 33 33 33 34 35 36 38 40 42 45 47 50 53 56 59 62 64 68 71
49 48 46 45 43 40 39 37 35 33 28 24 25 27 28 29 29 28 27 26 27 27 28 29 30 32 34 36 39 42 45 48 52 56 59 61 63 67
48 46 45 43 40 38 36 34 32 30 26 22 23 24 25 26 25 23 22 22 22 22 22 23 24 26 29 32 34 37 40 43 47 51 55 57 59 63
46 43 42 40 38 35 33 31 29 27 24 21 21 23 23 22 21 20 19 18 18 17 18 19 22 25 27 30 33 35 37 40 43 47 51 54 57 60
43 41 39 37 34 32 30 28 26 24 22 20 20 20 19 18 16 15 14 14 14 14 16 19 21 23 25 26 28 30 33 36 39 43 48 52 54 57
40 38 36 33 30 28 26 25 22 20 19 18 17 16 14 13 12 11 10 10 11 12 15 17 19 19 18 19 19 22 25 29 33 38 44 49 52 55
37 35 32 29 26 24 22 20 19 17 15 15 14 12 11 9 8 8 7 8 9 11 13 14 14 11 8 6 6 11 17 23 28 34 40 46 50 55
33 30 27 24 21 19 18 16 15 14 12 11 10 9 7 6 6 6 6 6 7 8 9 10 8 5 5 5 7 10 15 21 27 33 40 46 51 56
30 26 23 20 17 15 14 13 11 10 9 7 6 5 5 5 5 4 3 3 3 5 6 6 7 9 9 11 14 17 19 23 29 35 41 47 51 54
26 23 19 16 13 11 11 10 9 7 7 6 5 5 6 5 5 4 2 1 2 4 5 8 11 12 14 17 20 23 26 30 34 39 42 46 49 50
23 19 16 12 9 9 9 9 8 8 8 7 7 7 7 6 6 4 4 4 5 6 9 12 14 16 18 21 24 27 30 34 38 40 42 44 45 45
19 16 12 7 7 8 10 11 11 11 10 10 10 10 9 8 7 6 6 7 9 11 14 16 18 18 18 23 26 29 32 33 36 38 39 40 41 40
14 10 7 4 8 11 12 13 14 14 13 13 13 12 11 10 9 9 9 11 14 15 17 19 21 21 22 22 24 27 29 31 34 34 36 37 36 36
9 5 2 6 11 14 15 16 17 17 16 15 14 12 11 10 11 11 12 15 18 19 21 22 24 25 24 23 24 26 27 27 29 31 31 31 32 32
4 1 4 10 14 16 18 19 19 18 17 16 15 13 11 11 13 14 16 19 21 22 23 24 25 26 25 23 23 24 25 25 27 26 26 26 27 27
1 4 8 13 16 18 20 20 20 19 18 17 15 14 13 13 15 17 20 22 24 24 24 24 24 25 25 23 22 22 22 22 23 24 24 23 22 22
5 7 11 15 17 20 21 21 20 19 19 18 16 15 14 15 17 20 22 24 25 25 24 23 22 22 22 23 23 22 21 21 22 23 24 23 22 22
7 10 13 16 18 20 21 21 20 19 19 19 18 16 15 17 19 21 23 24 25 24 24 23 22 22 20 18 19 20 21 21 21 21 21 23 23 22
9 11 14 16 18 20 21 21 20 20 20 19 18 17 17 19 20 21 22 22 22 22 21 20 20 20 20 19 16 15 17 21 22 22 22 23 24 24
10 12 14 16 18 19 20 21 21 20 20 19 18 17 18 19 20 20 20 20 20 19 18 17 17 17 18 19 18 18 18 20 22 25 26 26 26 25
11 13 15 16 17 18 19 20 21 21 21 20 19 18 18 19 19 18 18 17 17 16 16 15 15 15 16 19 21 21 21 21 22 23 24 25 26 26
12 14 15 16 17 17 18 19 20 20 20 20 19 18 18 18 18 17 16 15 14 14 14 14 13 14 15 18 22 24 24 25 25 25 25 24 23 23

GEFSNE_500_meanwind_030.txt.gz
Wind_Speed
53 56 59 60 61 61 61 61 60 57 51 47 47 47 46 43 41 38 36 35 35 36 37 38 40 41 43 44 46 47 50 53 56 59 60 61 62 62
58 61 62 62 62 61 61 59 58 55 49 43 42 42 42 40 37 34 32 31 31 32 34 35 36 39 40 42 44 46 47 51 54 57 58 59 61 62
62 62 62 62 60 58 57 54 51 49 46 40 38 37 38 36 33 30 28 28 28 29 30 31 33 35 37 39 41 43 45 47 50 53 56 57 58 59
62 62 60 59 56 53 50 48 46 44 41 36 33 33 33 32 29 27 25 25 26 27 27 28 30 31 33 35 37 39 41 43 46 49 52 54 55 56
61 59 56 53 49 47 44 43 41 39 37 32 28 28 28 27 24 23 23 23 23 24 25 26 28 29 31 33 35 36 39 41 43 46 49 51 52 54
57 54 50 46 43 41 39 37 36 34 31 27 23 23 23 22 20 20 20 20 20 20 22 23 25 27 29 31 33 35 37 39 41 42 45 47 49 50
50 47 44 41 38 36 34 32 30 27 24 21 19 18 19 18 17 16 16 16 17 18 19 20 22 25 27 29 31 33 36 38 39 40 42 43 45 47
44 41 39 37 34 31 29 27 24 21 18 17 14 14 14 14 13 12 12 12 13 14 16 18 20 21 23 24 25 26 29 32 35 37 39 41 43 45
39 37 35 33 30 26 24 21 18 15 13 11 10 10 10 10 10 9 9 9 10 10 12 14 14 15 16 16 17 19 21 24 29 33 36 38 41 43
35 33 31 28 25 21 18 15 12 9 8 7 8 8 8 9 8 6 5 5 5 6 7 7 8 9 9 10 10 10 11 15 22 30 35 37 39 42
32 29 26 22 19 16 12 9 7 5 5 7 8 8 8 8 6 5 3 1 2 3 3 5 7 7 8 7 4 2 4 11 20 28 32 35 38 41
28 24 20 16 13 10 6 4 4 6 8 9 9 8 8 7 5 4 2 2 3 5 7 9 10 11 11 9 7 9 12 18 24 29 32 35 38 41
22 18 14 10 7 4 2 5 8 10 11 10 10 9 9 7 6 5 5 6 8 10 11 13 14 15 16 15 15 17 20 24 28 31 34 36 39 42
16 12 8 4 1 3 7 10 12 13 13 12 11 10 9 8 7 7 8 10 12 14 15 16 18 19 21 22 22 24 26 28 30 32 35 38 41 42
10 6 4 3 6 9 11 14 15 15 14 12 11 10 9 9 9 10 12 14 15 16 17 18 20 22 23 24 26 29 30 31 32 34 36 39 42 44
5 4 5 8 11 13 15 17 17 16 14 13 11 10 10 11 12 14 16 18 19 19 20 21 23 24 25 26 28 29 31 33 34 34 35 37 40 42
5 7 9 12 15 16 18 18 17 15 14 12 11 11 12 13 15 17 19 20 21 21 21 22 24 25 25 25 26 28 30 31 31 32 33 34 36 36
8 9 12 15 16 18 18 17 16 14 13 12 12 13 14 16 18 20 21 21 22 21 21 21 22 23 23 24 24 25 25 25 26 29 29 29 29 31
9 11 14 16 17 18 18 17 15 13 13 13 13 14 15 18 20 21 22 22 22 21 20 21 22 23 22 21 22 23 24 24 24 25 25 25 25 24
10 12 15 17 18 18 18 16 14 13 13 13 14 15 17 19 20 21 21 21 21 20 19 19 20 21 22 20 19 19 21 23 24 24 23 24 23 23
11 13 15 17 18 18 17 16 15 14 14 14 15 16 18 19 20 21 21 20 19 19 17 16 16 16 18 19 17 16 16 17 19 21 22 22 23 23
12 13 15 16 17 17 17 16 15 13 13 14 15 17 18 19 19 20 19 18 17 16 15 14 12 11 12 15 17 16 16 16 16 18 20 22 24 24
12 13 14 15 16 17 16 15 15 14 13 14 15 17 18 18 18 17 16 15 14 13 12 12 11 10 9 11 15 17 17 18 18 18 19 20 22 23

GEFSNE_500_meanwind_036.txt.gz
Wind_Speed
57 56 55 56 57 58 60 62 64 64 65 64 64 63 63 62 62 61 60 58 57 55 54 54 54 53 52 52 52 51 52 53 54 54 55 56 59 61
55 55 56 57 59 61 62 64 65 66 66 62 60 57 56 56 56 55 54 52 51 50 49 49 49 49 49 49 49 49 49 49 50 51 52 53 56 58
56 57 58 60 61 62 63 63 63 63 61 56 53 50 49 49 48 48 46 45 44 43 43 43 43 44 44 44 44 44 45 46 47 48 50 51 54 56
57 58 59 61 61 61 60 58 56 54 51 47 46 44 43 43 42 41 40 38 38 37 36 37 37 38 40 40 41 41 42 43 44 46 48 50 52 54
58 59 60 59 58 56 53 49 47 45 43 41 39 38 37 37 36 35 34 33 31 31 31 31 32 33 35 36 37 38 39 41 42 44 46 48 50 52
59 58 57 55 52 48 44 42 40 38 38 36 33 32 31 30 29 27 26 25 24 24 24 25 27 28 30 32 34 36 37 38 40 42 44 47 49 51
55 54 51 48 44 41 38 37 35 34 32 29 26 25 24 23 21 19 18 18 18 18 20 22 24 25 27 29 31 33 35 37 39 41 43 45 47 49
51 48 45 42 39 36 34 32 31 28 25 22 20 18 17 15 14 13 12 12 13 14 16 18 20 22 25 27 29 31 34 36 38 41 43 44 46 48
45 42 39 37 34 31 29 27 24 20 17 15 13 12 10 9 8 7 7 7 8 10 12 14 16 19 22 24 27 30 33 35 37 40 42 43 44 45
39 36 33 30 27 25 22 19 15 12 9 8 7 5 3 3 3 3 4 4 5 7 8 11 13 16 18 21 24 27 30 33 36 38 40 42 43 44
34 30 26 24 21 17 14 11 7 5 3 2 0 1 2 3 3 3 3 2 3 4 6 8 10 12 14 15 18 20 23 26 30 34 37 40 41 43
28 24 20 16 13 10 7 4 1 1 2 4 5 5 5 4 4 3 2 2 1 2 4 5 6 7 8 9 11 13 16 19 24 29 32 36 39 41
21 16 12 9 6 4 2 3 4 6 7 7 6 6 6 5 4 4 4 3 2 2 3 3 2 2 1 2 2 3 6 11 17 24 29 32 35 37
13 9 6 3 3 5 6 7 8 8 8 8 7 7 7 6 6 6 6 6 6 6 6 7 7 7 8 8 7 6 7 11 16 21 26 30 33 35
7 4 4 5 7 10 11 10 10 10 10 9 8 8 8 8 8 9 9 10 10 10 10 12 13 15 15 14 14 14 15 17 20 23 26 30 32 34
4 5 7 9 12 12 12 11 11 10 10 9 9 9 9 10 11 12 12 12 13 14 15 17 19 20 20 20 19 20 20 21 24 26 28 31 33 34
6 8 11 12 13 13 12 11 11 10 9 9 10 11 12 14 14 15 15 16 16 17 18 19 22 25 25 25 24 23 23 23 25 26 27 30 32 34
9 11 12 13 14 13 12 12 11 10 10 10 12 14 15 16 16 17 17 18 18 18 19 21 23 25 26 28 28 27 26 25 26 26 27 27 30 32
11 13 14 15 14 13 13 12 11 11 11 13 15 17 18 18 17 18 18 18 18 18 19 21 23 25 26 26 28 29 28 27 27 27 27 27 28 30
12 14 15 15 15 14 13 12 12 12 14 16 18 19 19 19 19 18 18 18 18 18 18 19 21 24 25 24 25 27 27 27 27 27 27 26 25 26
13 15 15 15 15 14 13 13 13 14 15 18 19 20 20 20 19 19 19 18 18 17 17 17 18 20 23 24 23 23 24 25 26 26 25 25 25 25
14 15 15 15 14 13 13 13 14 15 17 18 20 20 20 20 19 19 18 18 17 17 17 17 16 17 19 21 21 20 20 21 21 22 22 23 23 22
15 15 15 14 14 13 13 14 14 16 18 19 20 20 19 19 18 17 17 16 16 16 16 16 15 14 15 16 17 17 17 18 18 18 18 19 20 20

GEFSNE_500_meanwind_042.txt.gz
Wind_Speed
58 60 62 64 66 68 68 69 69 67 65 65 65 65 65 65 64 64 63 63 63 63 63 63 63 63 64 64 64 64 65 64 63 62 61 59 58 57
60 62 64 66 67 68 69 69 69 69 68 67 66 65 63 62 60 59 58 57 56 56 57 56 57 57 58 60 61 62 63 64 64 63 63 62 60 58
60 62 64 66 67 68 69 69 69 69 69 65 63 60 56 53 51 50 49 48 47 46 47 48 48 49 51 53 55 57 59 61 62 62 62 62 60 59
61 63 64 66 67 68 68 67 66 65 63 58 53 49 47 45 43 42 41 40 40 40 41 41 42 43 44 46 47 50 53 55 57 58 59 59 59 58
62 64 65 66 66 65 65 63 60 57 53 48 43 41 39 38 38 36 35 35 35 34 34 34 35 36 38 40 41 43 45 48 51 53 54 55 55 55
62 63 64 63 63 61 57 54 50 47 43 40 36 34 34 34 32 30 29 29 29 29 29 29 29 30 31 33 35 36 38 41 43 46 48 50 51 52
61 61 60 59 56 52 48 44 41 37 34 32 29 29 29 27 26 24 23 22 23 23 22 23 23 24 25 26 28 29 32 34 37 40 42 45 47 48
58 56 54 51 47 43 40 36 34 31 28 26 25 23 21 20 18 17 16 16 16 17 17 17 18 19 20 21 22 24 26 29 32 35 37 40 43 45
52 49 45 42 39 36 32 29 27 24 21 20 18 15 14 13 12 12 12 11 11 13 13 13 14 14 16 17 18 20 23 25 27 30 33 36 38 41
44 40 36 34 32 28 24 21 18 16 15 13 11 10 9 9 9 8 9 9 9 10 10 10 11 12 12 14 15 18 20 23 25 27 30 33 35 38
35 32 29 27 23 20 17 14 12 11 9 8 7 7 7 7 8 8 8 8 8 9 9 9 9 9 10 11 13 16 19 21 24 26 29 31 33 36
28 26 23 20 17 14 11 9 7 6 5 5 6 6 7 7 8 9 9 8 8 8 8 8 7 8 8 9 10 12 16 19 23 25 28 30 32 33
22 19 16 13 11 8 6 5 5 5 6 6 6 7 7 8 9 9 9 9 9 9 8 7 6 6 6 6 7 8 11 14 18 22 26 29 31 33
15 12 10 8 6 5 5 6 6 6 7 7 7 8 8 8 9 10 11 11 11 11 9 8 7 7 5 4 3 3 5 8 13 18 22 27 30 32
9 7 6 5 5 6 7 7 7 7 7 8 8 8 9 9 10 11 13 14 13 13 12 10 10 9 8 7 6 4 3 5 9 13 18 23 27 29
5 4 4 5 7 7 7 8 8 8 8 8 9 10 10 11 12 13 14 15 14 14 13 12 12 13 13 12 11 10 9 9 10 13 16 21 24 27
3 4 6 7 7 7 8 8 8 8 8 9 10 11 11 12 13 14 15 15 15 15 15 14 14 16 16 16 16 15 15 14 14 15 17 19 23 26
5 6 7 8 8 8 8 8 8 8 9 10 11 11 12 13 13 14 15 16 16 16 17 17 17 18 18 18 19 20 19 18 18 18 18 18 21 24
7 8 9 9 9 9 9 8 9 9 10 11 11 11 12 13 13 14 15 16 17 17 17 18 18 19 19 19 21 22 23 23 21 20 20 19 19 21
9 9 10 10 10 9 9 10 10 11 12 12 11 12 12 12 13 14 15 15 16 17 18 18 19 20 21 20 20 22 23 24 23 22 21 20 19 20
10 10 11 10 10 10 11 11 12 12 13 12 12 12 11 11 12 13 14 15 15 16 17 18 19 20 20 20 20 22 23 24 25 24 24 22 21 20
11 11 11 11 11 11 11 12 12 13 13 13 13 13 13 13 14 14 15 16 16 16 16 16 18 19 20 20 19 20 21 22 23 24 25 25 24 22
12 12 12 12 12 12 12 12 12 13 13 13 13 13 14 14 14 15 15 16 16 17 16 16 16 18 19 19 20 20 20 21 22 23 22 23 23 22

GEFSNE_500_meanwind_048.txt.gz
Wind_Speed
61 62 61 61 61 62 63 64 65 65 65 68 70 73 75 75 75 74 73 71 69 68 66 65 63 62 61 61 61 61 61 61 61 61 60 59 58 57
61 61 61 61 61 61 62 64 66 67 67 69 72 74 74 73 71 69 65 62 60 59 58 57 57 57 57 57 58 59 61 62 62 62 62 61 60 59
61 60 59 60 60 60 62 64 66 68 69 69 71 71 69 66 62 58 54 51 49 47 47 47 48 49 51 52 54 56 58 59 61 62 63 63 62 61
60 59 59 59 59 60 62 64 66 69 69 67 64 61 57 52 48 45 43 41 39 39 39 40 41 42 43 45 47 50 53 55 57 60 62 63 62 62
59 58 58 57 58 60 62 64 65 65 62 59 52 48 44 41 38 36 34 34 33 33 33 33 34 34 36 37 39 42 45 48 51 54 57 60 62 62
57 57 57 58 59 60 60 60 59 56 52 47 41 37 34 32 30 28 28 28 27 26 26 26 27 27 29 30 32 35 38 41 44 47 50 54 58 60
55 55 56 57 57 57 56 53 50 45 41 36 32 28 26 25 25 24 22 22 22 22 21 21 22 23 25 26 27 30 32 35 38 41 44 48 51 55
53 53 54 54 53 51 48 44 39 34 28 26 23 21 20 20 19 19 18 18 18 19 19 19 19 19 21 22 24 26 28 30 33 36 38 42 46 50
50 50 49 48 45 41 37 33 28 24 21 19 17 16 16 16 16 17 17 17 17 17 17 16 16 16 17 18 20 22 24 26 29 31 34 36 39 43
46 44 41 38 35 30 27 23 20 18 16 14 14 13 14 14 15 15 16 16 16 15 14 13 13 14 14 15 16 18 20 21 23 26 29 32 35 38
39 36 33 29 26 22 18 16 14 13 12 12 11 12 12 13 15 15 16 15 14 13 12 12 11 12 12 13 14 16 18 19 21 22 24 27 30 33
33 29 25 22 18 14 11 10 10 9 9 10 11 12 13 14 15 15 15 14 13 12 11 10 10 9 10 10 10 12 14 16 18 19 21 23 26 29
25 22 18 14 10 8 7 7 7 7 7 9 11 12 14 15 16 15 15 14 13 12 11 11 10 9 8 8 8 8 11 13 15 16 18 21 22 25
17 14 10 7 5 5 5 5 5 6 8 9 11 12 14 16 17 16 15 15 15 14 13 13 11 9 8 6 5 4 5 8 11 13 16 19 21 23
10 7 5 3 3 4 4 5 6 7 8 10 11 13 15 17 18 18 17 17 16 15 15 15 13 12 9 7 6 3 1 4 7 11 14 17 20 22
4 2 1 2 3 4 5 6 7 8 9 11 12 14 15 17 18 18 18 18 18 18 17 16 15 14 12 10 8 6 5 4 7 10 14 18 20 23
1 2 3 4 4 5 6 6 7 8 9 11 12 14 16 17 17 17 18 18 19 19 19 18 17 16 15 13 11 10 10 9 9 12 15 18 21 23
4 5 5 5 6 6 6 7 8 9 10 11 12 14 15 16 17 17 18 18 19 19 19 19 18 18 17 15 14 14 14 14 14 15 17 18 20 23
7 7 7 7 7 8 8 9 9 10 11 12 13 14 15 16 17 17 18 18 19 19 20 20 20 20 19 16 15 16 17 17 17 17 18 19 20 21
9 8 8 8 9 10 10 10 10 11 12 13 14 15 16 16 17 17 17 18 18 19 20 21 21 21 20 19 17 18 20 21 21 20 19 19 19 20
10 9 9 10 11 11 12 12 12 12 13 14 15 16 16 16 17 17 17 18 18 19 19 20 20 21 22 21 19 19 20 22 22 22 22 21 20 19
11 11 11 11 12 13 13 13 13 13 14 15 15 16 17 17 17 18 18 18 18 19 19 20 19 20 21 21 20 19 19 20 21 22 22 22 22 20
12 12 12 13 13 14 13 13 13 14 14 15 16 17 18 18 19 19 19 19 19 19 20 20 20 20 21 21 20 20 20 21 21 21 21 22 21 20

GEFSNE_500_meanwind_054.txt.gz
Wind_Speed
62 62 62 62 62 62 62 62 62 60 58 60 62 64 66 66 68 69 69 70 71 71 71 70 70 69 68 67 67 66 66 66 66 67 68 68 67 65
61 61 61 61 61 61 60 62 62 61 60 60 62 64 66 67 68 68 67 66 65 63 62 60 59 58 58 57 58 58 59 59 60 62 64 66 67 66
61 61 61 60 60 60 61 61 61 61 61 60 63 64 66 66 65 63 60 57 54 52 50 49 48 47 46 46 47 47 49 50 52 54 57 60 63 65
59 59 59 59 59 60 60 60 60 61 61 60 61 62 62 60 57 53 50 46 44 42 40 39 38 37 38 38 39 40 41 43 44 46 49 53 56 60
57 58 58 58 58 59 59 59 59 60 60 59 57 55 52 49 46 42 39 37 35 34 33 33 33 34 34 34 35 35 36 37 39 41 43 46 50 54
56 56 57 56 56 57 56 56 56 55 54 52 48 44 40 37 35 32 31 31 31 31 30 30 30 30 30 30 30 31 31 32 33 36 39 42 46 49
55 55 55 54 54 53 52 52 50 48 46 41 37 33 31 29 28 28 27 28 29 29 28 28 28 28 28 27 27 28 28 28 29 30 33 36 40 45
52 52 51 50 49 49 48 46 44 40 35 31 28 26 25 25 25 26 26 26 27 27 27 27 26 25 25 24 25 25 25 25 26 27 28 30 34 39
48 47 47 45 44 43 42 39 36 31 27 24 21 21 21 22 23 24 25 25 25 24 23 23 24 23 23 22 22 22 22 22 23 24 25 28 30 34
45 43 42 40 38 36 33 30 27 23 20 18 17 18 19 21 23 23 23 23 22 22 21 20 20 20 19 19 19 19 19 20 21 22 23 25 27 30
40 38 35 33 31 27 25 22 19 16 15 14 15 17 19 20 20 21 20 20 20 21 19 17 17 17 16 15 15 15 15 16 17 19 21 22 24 27
34 31 28 25 22 20 16 14 12 11 12 13 15 16 18 18 19 19 19 19 19 19 17 16 16 15 14 13 12 12 12 13 14 15 17 19 21 24
26 23 20 17 15 12 10 8 8 9 11 12 14 15 16 17 18 18 18 19 19 18 17 16 16 15 14 12 11 10 9 9 10 12 14 16 18 21
19 16 13 11 9 7 6 6 7 9 10 11 13 15 16 16 17 18 18 18 18 18 18 18 17 16 14 11 10 9 7 6 7 9 11 13 15 18
12 10 8 6 4 3 4 5 7 8 10 11 13 15 16 16 16 17 19 19 19 19 19 20 19 17 15 13 11 8 4 2 2 5 8 10 12 15
6 4 3 2 2 3 4 5 7 8 10 11 13 15 16 16 17 17 19 20 20 21 21 21 20 18 17 16 14 10 7 4 4 5 7 9 11 13
1 1 2 3 4 4 5 6 8 9 10 11 13 15 16 17 17 18 19 20 21 22 22 22 21 20 19 18 16 14 11 9 8 8 8 9 11 12
4 5 5 5 6 6 7 8 9 10 11 12 13 15 16 17 18 19 20 21 22 22 22 22 22 22 22 20 18 17 15 14 13 12 12 11 12 13
7 7 7 7 8 8 9 9 10 11 12 13 14 15 16 17 18 19 20 21 22 23 23 23 23 23 23 22 20 19 18 18 17 16 15 14 14 14
9 9 9 9 10 10 10 11 12 13 14 15 16 16 17 17 19 19 20 21 22 24 24 24 24 23 23 23 22 21 20 20 19 18 17 16 16 16
11 11 11 11 12 12 12 12 13 14 16 17 17 18 18 18 19 20 21 22 23 24 24 24 24 24 24 24 22 21 21 21 21 21 20 19 18 17
12 12 12 13 13 13 14 14 15 16 17 18 19 19 20 20 20 21 21 22 22 23 24 24 24 25 25 24 22 21 21 21 20 20 20 19 19 18
13 13 14 14 14 14 15 16 17 18 18 19 20 21 21 22 23 23 23 23 23 23 23 24 24 24 23 22 21 21 20 20 20 19 19 19 19 18

GEFSNE_500_meanwind_060.txt.gz
Wind_Speed
53 55 56 57 58 58 59 60 61 60 60 61 61 62 63 64 64 65 65 65 64 64 64 64 64 63 63 63 63 63 63 63 64 64 65 67 68 69
55 56 56 57 57 57 57 58 59 59 59 59 60 61 62 62 63 63 62 62 61 60 59 59 59 59 58 58 59 59 59 59 59 59 60 61 63 65
55 55 55 55 55 56 56 57 58 58 57 57 58 59 59 60 59 58 57 55 54 53 52 51 51 50 50 50 50 50 50 51 52 53 54 55 58 60
54 54 54 54 54 54 55 55 56 56 56 55 55 55 55 55 54 52 50 49 47 45 44 43 42 41 41 41 41 42 43 43 44 45 46 48 50 53
52 52 52 52 53 53 53 53 53 53 53 52 51 50 50 49 47 45 43 41 39 37 36 35 35 34 35 35 36 37 37 38 39 39 40 41 43 45
51 51 51 51 51 51 51 50 50 50 49 48 47 46 44 42 40 38 35 34 33 32 32 32 32 32 32 33 33 34 35 36 36 36 37 38 39 41
49 50 50 50 49 49 48 47 47 47 45 44 41 39 37 35 33 31 30 29 30 30 30 31 30 31 31 31 31 31 32 33 34 34 35 35 36 38
49 49 48 47 46 46 45 44 43 41 39 36 34 32 30 28 27 27 27 27 27 28 29 29 29 29 29 29 29 29 29 30 30 31 32 32 33 34
48 47 46 45 44 43 41 39 37 34 31 29 27 25 24 25 25 25 26 26 26 26 26 27 27 26 26 26 26 26 27 27 27 28 29 29 30 31
46 44 43 41 40 37 34 32 30 27 24 22 21 21 22 22 23 23 24 24 24 25 26 25 25 24 24 24 24 24 24 24 24 25 25 26 27 29
41 39 37 35 32 30 28 26 24 21 18 17 17 19 20 20 20 21 22 23 23 24 25 24 23 23 23 23 22 21 21 21 21 21 22 23 24 25
35 32 29 27 25 24 22 19 17 15 14 14 15 16 17 18 19 19 21 22 22 22 23 22 22 21 21 21 20 19 18 17 17 17 18 19 20 21
27 24 22 20 18 16 14 12 11 11 11 12 13 14 15 17 17 18 20 21 21 20 21 20 20 19 18 17 17 16 14 14 13 13 13 14 15 17
19 17 15 13 12 10 9 8 8 8 9 10 11 12 14 16 16 18 19 20 20 20 20 19 18 17 16 15 14 13 11 9 9 9 9 10 11 13
12 10 9 7 6 5 5 4 5 6 8 9 10 12 13 15 15 17 18 19 19 19 19 19 18 17 16 14 13 11 9 6 4 3 4 5 7 9
7 5 4 3 2 2 2 4 5 6 7 8 9 11 12 14 15 16 18 18 18 19 18 19 18 18 16 15 14 12 10 7 5 3 1 1 3 6
1 0 1 2 3 3 4 5 6 6 7 8 9 11 12 13 15 16 17 18 18 19 19 19 19 18 18 16 15 14 13 11 9 7 5 3 3 5
3 4 4 5 5 6 6 6 7 8 8 9 10 11 13 14 15 16 17 17 18 18 19 19 19 20 19 18 18 16 15 14 12 11 9 8 6 5
6 6 7 8 8 8 8 9 9 10 10 11 11 12 14 15 16 16 17 17 18 18 19 19 20 20 20 20 19 19 18 17 15 14 12 11 9 8
8 9 9 10 10 10 10 11 11 12 12 13 13 14 15 16 17 18 18 18 18 18 19 19 19 20 20 20 20 19 19 18 17 16 15 14 13 12
10 11 11 11 11 12 13 13 13 14 14 15 15 16 17 18 19 19 20 20 19 19 18 18 18 19 20 20 19 19 19 19 18 17 17 17 16 15
12 12 12 13 13 14 14 14 15 15 16 16 16 17 18 19 20 20 21 21 20 19 18 18 18 18 19 18 18 18 19 19 19 18 18 18 17 16
13 13 14 14 14 15 15 15 15 15 16 16 17 17 18 19 20 21 21 21 21 20 20 19 19 18 17 17 17 17 18 18 19 19 18 18 18 17